Theta_e
290 291 290 291 291 291 291 289 289 287 288 287 284 285 288 289 284 282 287 289 287 289 292 294 295 296 296 296 297 298 298 297 297 296 294 294 294 295 295 294 292 291 290 289 288 287 287 286 285 285 285 285 284 284 284 283 282 281 281 280 279 279 278 278 277 278 277 277 277 276 276 275 274 274 273 272 272 271 270 270 270 270 269 269 269 269 269
287 288 289 290 289 288 289 288 288 289 288 288 288 287 289 289 287 288 289 289 289 291 293 294 295 297 297 297 298 297 296 296 296 296 295 295 296 296 295 295 294 293 292 291 289 288 287 286 285 285 284 284 284 283 283 282 281 281 280 279 278 278 278 278 277 277 277 276 275 275 274 273 273 272 272 271 270 269 269 269 268 268 268 268 268 268 268
284 286 288 289 288 288 286 287 288 287 287 288 289 289 290 289 289 290 289 288 287 293 295 295 296 297 297 296 295 295 296 296 296 296 296 296 296 297 297 297 296 295 294 293 292 290 287 286 286 285 284 284 284 283 283 282 281 280 280 278 278 278 277 277 277 276 275 275 274 273 273 273 272 271 270 269 268 268 268 267 267 267 267 267 267 268 268
281 286 286 287 288 288 286 285 286 286 286 285 287 286 289 287 285 287 287 285 286 292 295 295 295 295 295 294 295 295 296 296 296 295 295 296 296 296 297 297 297 296 295 294 293 291 289 287 286 285 284 284 283 282 282 281 280 279 279 278 277 277 277 277 276 275 274 274 273 272 272 271 270 269 268 267 267 266 266 266 266 267 267 267 268 268 268
279 285 286 285 285 283 280 281 285 286 287 288 289 290 290 290 291 286 284 285 291 293 295 294 294 294 294 294 294 295 295 296 296 296 296 296 296 297 297 297 297 297 296 294 293 292 291 288 286 285 284 283 282 282 281 280 279 278 278 277 277 277 276 275 275 274 274 272 272 271 270 269 268 267 266 266 265 265 265 266 266 266 266 267 268 268 268
279 284 284 285 281 274 276 287 291 290 287 287 285 286 289 291 291 289 292 292 294 295 294 293 293 293 294 295 296 296 296 296 296 297 297 297 298 298 298 298 298 298 298 296 294 293 292 289 287 286 285 283 283 282 281 279 278 277 277 277 277 276 275 274 274 273 272 271 270 270 269 268 267 266 265 265 265 266 266 266 266 266 267 267 267 267 267
279 283 283 279 273 275 286 291 293 292 291 290 289 289 291 291 292 292 292 292 293 294 295 295 295 296 296 297 296 296 297 298 297 296 296 297 297 297 298 298 298 297 297 297 294 291 290 288 286 285 284 283 282 281 279 278 277 277 276 276 276 275 274 273 272 272 271 270 269 268 267 266 266 265 265 265 265 266 266 266 266 266 266 266 266 266 266
283 280 279 274 273 285 288 291 292 294 293 292 290 288 290 291 292 292 291 292 294 295 295 296 296 296 297 297 297 297 298 298 297 296 296 297 297 297 298 297 298 298 297 296 293 291 289 287 285 284 283 282 281 279 278 277 276 276 276 275 274 274 273 271 271 271 270 269 268 267 266 265 265 265 265 265 265 266 266 266 267 267 266 267 266 265 266
277 279 279 278 286 283 285 287 289 290 287 288 287 282 287 292 293 293 292 293 294 295 295 296 296 296 296 294 295 298 298 298 298 297 297 298 298 298 298 298 298 298 297 294 292 290 287 286 284 283 282 281 279 277 277 276 276 275 275 274 273 272 271 271 270 270 269 268 267 266 265 264 264 264 265 265 265 266 265 266 266 266 266 266 266 266 265
285 278 277 278 277 275 282 289 293 296 294 294 294 290 286 295 295 295 294 293 294 294 294 295 295 296 292 289 291 296 298 298 298 298 298 298 298 298 298 298 298 295 293 291 290 288 286 284 284 283 281 280 278 277 276 275 275 274 274 273 273 272 271 270 270 269 269 267 266 265 264 264 264 265 265 265 265 266 265 265 265 265 265 265 265 266 265
284 280 277 276 276 279 287 289 294 295 296 296 294 288 283 293 295 296 295 294 294 294 294 294 295 292 288 289 292 296 298 297 297 297 297 298 298 298 298 298 297 295 291 290 288 287 285 283 283 281 280 279 277 276 275 274 274 273 273 273 272 271 270 269 268 268 267 267 266 265 264 264 264 264 264 264 265 265 265 265 265 265 265 265 265 265 265
281 280 278 277 282 281 288 292 293 296 297 297 291 279 280 293 294 296 296 294 294 294 295 295 293 291 288 289 293 298 298 298 298 296 297 297 297 297 297 296 295 292 289 287 285 286 284 284 282 280 279 278 276 275 274 273 273 272 273 272 271 270 268 267 267 266 266 266 265 264 264 264 264 264 264 264 264 264 264 265 265 265 265 265 264 264 265
281 281 279 282 283 290 293 293 295 296 296 293 282 277 286 295 295 296 296 295 295 295 294 294 292 293 295 296 297 298 298 297 297 296 295 296 295 296 296 294 290 288 287 287 286 286 285 283 281 280 278 277 276 274 273 272 272 272 272 270 269 268 267 265 265 265 265 265 264 264 264 263 263 263 264 264 264 264 263 264 264 264 263 263 263 264 266
279 280 279 278 283 289 294 295 296 296 291 281 280 290 297 296 295 297 296 295 295 295 295 295 295 295 297 296 296 296 296 296 297 297 296 292 291 289 289 289 288 287 286 285 285 284 283 281 279 278 277 276 275 274 273 272 273 272 270 269 268 266 265 264 264 263 263 263 263 263 263 263 262 262 264 264 263 263 263 264 262 261 262 264 264 265 266
283 281 278 278 274 287 296 294 293 295 287 287 295 296 296 296 296 296 296 296 296 296 295 296 296 296 296 296 296 296 296 296 296 296 297 294 291 290 288 286 287 286 285 284 284 283 280 279 278 278 277 275 274 273 272 272 272 270 269 267 266 265 264 263 263 262 262 261 261 261 262 262 262 262 263 261 261 262 262 262 262 262 263 264 264 265 265
280 279 277 277 285 290 295 294 288 292 294 297 297 296 295 297 297 296 296 296 296 296 296 295 296 296 295 296 296 296 296 296 296 297 297 295 292 290 289 288 287 285 285 284 283 280 278 278 277 277 276 274 273 272 272 271 270 268 267 266 265 264 262 262 261 261 261 261 261 261 261 262 262 262 262 261 261 262 262 262 263 263 265 265 265 265 265
285 282 286 290 294 294 296 296 296 297 299 299 299 297 296 296 297 297 297 296 297 297 297 296 296 296 296 296 296 296 296 296 296 296 296 294 291 289 287 286 285 284 284 283 280 277 276 276 276 276 276 274 272 271 271 269 268 266 265 264 263 262 261 261 260 260 260 260 261 260 261 261 261 261 261 261 261 263 262 263 264 264 264 264 265 265 265
289 289 292 293 294 294 293 295 296 295 295 295 294 293 293 294 295 294 293 293 293 294 293 292 292 293 294 294 295 295 296 296 296 296 293 290 288 287 285 284 283 282 282 280 278 275 275 275 275 275 276 275 271 272 269 267 267 266 264 263 262 261 261 260 260 260 260 260 260 260 261 261 262 262 261 261 262 263 263 264 264 263 264 265 265 265 265
281 278 290 286 288 290 290 291 293 294 294 292 292 292 292 292 293 294 294 294 294 294 293 292 292 292 293 293 293 294 294 294 294 294 293 291 288 286 284 283 281 279 278 277 275 274 273 273 274 274 275 274 273 269 267 267 266 264 263 263 262 261 260 260 260 260 260 260 260 260 260 261 262 263 263 263 263 263 264 264 264 264 264 265 265 265 264
278 279 283 284 286 287 288 291 292 292 292 293 293 294 294 294 294 295 295 294 294 294 293 294 293 293 293 293 293 293 293 293 293 293 293 292 289 285 284 282 279 279 278 277 275 273 272 272 273 273 274 273 270 267 267 266 264 263 263 262 261 260 260 259 259 260 260 260 259 259 260 261 261 262 262 263 263 264 264 264 263 264 264 265 265 264 264
278 282 283 285 286 287 288 292 292 292 291 292 292 292 292 292 292 293 294 295 294 294 294 294 293 292 292 292 293 293 293 293 293 293 293 292 288 285 281 280 278 278 278 277 275 273 272 272 272 273 273 271 267 266 265 263 263 263 263 262 261 260 259 259 259 260 261 260 261 260 260 261 262 263 262 262 264 264 264 265 265 265 265 265 265 265 265
275 276 279 283 278 280 287 289 290 290 289 289 288 289 288 289 289 291 292 292 294 294 294 294 293 291 292 293 293 292 293 293 293 293 292 291 288 285 283 281 279 278 278 277 275 273 272 271 271 271 271 267 266 266 264 263 263 262 262 261 260 259 259 259 260 260 260 260 261 260 260 260 260 260 263 265 265 263 263 267 269 269 269 266 266 266 266
275 281 284 286 286 284 284 285 285 285 286 286 285 285 285 286 286 287 287 287 288 289 290 292 291 291 292 293 294 293 293 293 293 293 292 291 289 286 283 279 277 277 277 276 275 272 271 270 270 270 269 265 265 264 263 263 263 263 261 260 260 260 260 259 260 259 260 259 260 261 261 261 261 260 261 263 267 268 268 268 268 269 269 269 269 269 268
281 282 281 282 280 279 281 283 283 283 285 284 284 284 285 285 286 286 286 286 286 287 288 289 291 291 292 292 292 291 292 293 292 292 292 292 291 289 285 281 279 277 276 274 273 272 270 269 270 269 266 264 264 263 262 263 263 262 262 261 260 260 260 260 260 260 260 260 260 260 261 261 262 261 261 261 263 267 268 268 269 269 268 268 268 268 269
278 282 282 282 282 282 283 283 284 285 285 285 283 284 285 285 287 288 287 288 288 288 287 288 289 290 289 289 290 290 290 291 292 292 291 291 291 290 287 282 279 277 276 275 274 273 271 269 269 267 265 264 263 262 261 263 263 262 262 262 261 260 260 260 260 260 260 260 260 260 260 260 261 262 262 262 262 263 265 266 268 268 267 268 268 268 268
282 282 283 283 283 283 285 285 284 284 282 282 282 283 284 285 286 286 286 287 287 288 288 287 288 289 289 289 289 290 290 290 290 290 291 290 290 288 284 282 280 279 277 276 274 272 269 268 268 266 264 263 261 261 261 262 262 263 263 262 262 261 260 260 260 260 260 260 260 260 260 261 261 261 261 262 262 262 260 261 263 265 265 266 266 266 267
282 278 277 277 278 279 280 278 276 279 279 281 281 283 284 284 284 284 284 285 285 286 286 287 287 288 288 289 289 289 289 290 290 290 290 290 289 288 285 283 281 279 277 276 273 270 268 267 266 264 263 261 260 261 261 262 262 263 263 263 262 261 260 261 261 261 261 261 260 260 259 259 259 259 258 258 258 259 259 259 259 258 257 258 262 265 264
276 275 274 270 271 273 274 275 276 277 279 280 280 279 279 280 280 280 280 281 283 284 285 286 287 287 287 288 289 288 289 289 289 289 289 289 289 288 286 283 281 278 276 273 272 269 267 266 265 263 261 261 260 260 260 261 263 263 262 262 261 260 260 261 261 261 260 260 260 259 259 259 259 259 258 258 257 256 256 256 256 255 256 256 256 260 263
272 271 271 271 270 271 272 274 276 277 276 276 276 276 276 276 276 276 277 278 279 281 282 283 285 286 286 287 288 287 288 288 288 289 289 289 288 286 285 282 279 275 273 271 270 267 266 265 264 262 260 260 259 260 261 262 263 262 261 260 260 260 261 261 261 260 259 259 259 259 259 258 257 257 257 256 256 256 255 255 255 255 255 255 256 257 260
268 268 267 268 268 270 272 272 271 271 271 272 272 271 272 271 270 272 273 275 277 277 279 280 282 283 284 284 285 286 286 286 287 288 289 289 288 286 280 273 271 270 270 268 267 266 265 264 263 262 259 259 259 260 261 262 262 261 260 261 260 260 260 260 259 258 258 258 259 259 257 257 257 257 256 255 255 255 254 254 255 255 254 254 257 255 254
265 265 265 266 269 270 268 267 267 268 269 268 268 267 267 268 268 269 270 271 272 273 275 276 277 278 280 281 282 284 285 286 287 287 288 288 288 282 274 272 271 268 268 267 267 266 265 264 262 260 259 259 259 260 261 261 260 260 260 260 260 261 261 261 260 258 258 257 257 256 256 256 256 255 254 254 254 254 254 253 254 254 254 253 253 254 254
262 261 264 268 267 264 263 264 264 265 265 265 264 263 265 265 264 265 266 267 268 270 271 272 273 274 276 278 280 282 283 285 286 286 287 287 285 278 274 273 275 273 273 270 268 265 263 262 260 259 259 258 259 259 260 260 260 260 259 259 259 259 259 261 259 258 257 256 255 255 255 254 255 255 254 254 253 253 253 253 253 253 253 253 253 253 253
259 260 263 263 261 260 260 262 262 262 262 262 262 263 263 264 264 264 265 266 267 268 268 269 271 272 274 276 278 279 280 281 282 283 285 285 281 275 274 274 275 275 274 272 268 264 262 261 259 258 258 258 259 260 261 261 261 261 260 259 259 259 259 261 259 257 255 255 254 254 254 254 254 254 254 253 253 253 253 253 253 253 253 252 252 252 253
259 259 260 260 260 259 259 259 261 260 261 262 262 262 262 262 262 262 263 264 264 265 266 268 269 271 272 273 275 277 278 278 279 280 282 282 278 275 274 272 272 271 269 267 264 263 262 260 257 257 257 258 259 260 261 261 261 260 259 259 259 259 258 257 257 255 254 254 254 253 253 253 253 253 252 252 252 252 252 252 252 252 252 252 252 251 254
262 261 261 261 261 261 261 260 260 259 259 259 259 259 260 261 261 261 262 263 263 264 266 267 268 269 270 272 274 276 277 278 280 282 283 284 281 273 270 268 265 263 263 263 263 263 261 258 257 257 258 259 260 261 261 260 260 260 260 259 259 258 257 255 255 254 254 253 253 253 253 252 252 252 252 252 252 252 251 252 252 252 252 251 251 251 251
260 259 259 259 260 260 260 259 259 259 259 258 258 258 258 259 260 260 260 261 263 264 265 266 268 269 271 273 275 277 279 281 282 282 283 280 271 269 267 265 263 262 261 261 262 261 258 257 257 257 259 259 260 260 260 260 260 260 259 259 257 256 255 254 254 254 253 252 252 252 252 252 251 250 250 251 251 251 251 250 250 251 251 251 250 250 250
259 258 258 258 259 259 258 258 258 258 258 258 258 258 258 258 259 260 261 262 263 264 265 267 269 270 272 274 276 277 278 278 279 280 277 270 268 267 265 263 261 260 259 258 259 259 258 257 257 257 259 259 260 260 259 258 259 259 258 257 256 255 254 254 253 253 252 252 252 251 250 250 250 250 250 250 250 250 250 250 250 250 250 250 250 249 250
258 258 258 258 258 258 257 258 258 258 258 258 258 258 258 259 259 260 261 262 263 266 267 268 268 269 272 274 274 274 275 276 274 271 268 268 267 265 262 261 261 260 259 259 259 258 257 256 256 258 259 259 259 258 258 257 257 257 257 256 255 254 253 253 252 252 251 251 250 250 250 250 250 250 250 250 250 250 251 251 251 250 250 250 249 249 249
257 258 258 258 258 257 257 258 258 258 258 257 257 257 259 259 260 261 262 264 265 266 266 267 269 270 270 270 272 273 271 269 267 267 267 266 264 263 261 261 261 261 260 257 257 256 255 256 258 259 259 258 257 258 256 255 256 257 256 255 254 254 253 253 252 251 251 250 250 250 251 251 251 250 250 250 249 249 250 250 250 250 250 250 249 249 249
256 256 256 257 257 257 257 257 257 257 258 258 257 257 258 259 260 261 262 263 264 265 266 267 268 268 269 270 269 267 266 266 266 266 264 263 262 258 256 256 256 255 255 256 256 256 256 257 258 259 259 257 256 255 255 255 255 255 255 254 254 253 253 252 251 251 250 250 250 250 251 250 250 250 250 250 249 249 249 248 249 249 249 249 249 249 249
256 256 257 257 257 257 257 256 256 257 257 257 257 258 258 259 261 261 262 262 263 265 266 267 266 267 267 266 264 263 264 264 264 263 262 261 259 259 255 252 255 256 257 257 257 256 256 257 257 256 255 255 255 254 254 254 255 255 255 254 254 253 252 252 251 251 250 251 250 251 250 250 250 250 249 250 250 250 249 250 250 250 250 249 249 249 249
255 256 256 256 256 256 257 257 256 256 256 257 258 258 259 260 261 261 262 262 263 265 264 264 264 264 263 263 262 262 262 262 261 260 259 259 258 256 253 253 256 256 256 256 256 256 256 256 256 255 255 254 254 253 254 255 255 255 255 254 253 253 252 252 251 252 251 251 252 251 251 251 250 250 250 250 250 250 251 252 252 252 251 250 250 249 249
255 255 255 256 256 256 256 256 256 256 256 257 258 259 260 261 261 261 261 262 263 263 262 262 262 262 262 262 261 261 259 258 255 253 253 253 254 255 254 254 256 256 255 255 256 256 256 256 255 255 254 253 253 253 254 255 255 255 254 254 253 253 253 252 252 252 252 252 251 251 251 251 251 250 250 250 251 251 251 251 252 251 251 251 249 249 249
255 255 255 256 256 256 256 256 256 256 256 257 259 259 260 260 260 259 260 261 261 261 261 261 261 261 261 261 260 258 257 256 256 255 254 253 253 254 255 255 255 255 255 255 256 256 256 255 254 253 253 252 252 253 254 255 255 254 254 253 253 253 253 252 252 251 251 251 251 251 251 250 251 251 251 251 251 251 250 250 249 250 250 250 250 249 249
254 255 255 256 256 256 255 255 255 255 256 258 259 259 259 258 258 259 259 259 260 260 261 260 260 260 259 259 258 258 258 258 257 257 254 252 251 251 254 255 255 255 255 256 256 256 255 254 253 252 252 253 253 254 255 254 254 254 253 253 253 252 252 251 251 251 251 251 251 251 251 251 251 251 251 251 250 250 249 249 249 249 249 249 249 249 249
255 255 256 256 255 255 256 256 257 257 257 258 258 258 258 258 258 258 259 259 259 259 259 259 259 258 257 257 256 256 255 255 254 255 254 254 252 252 255 256 255 255 255 256 256 254 253 253 252 252 253 253 253 254 254 254 254 254 253 253 252 251 252 252 251 251 251 250 250 250 250 250 250 251 251 250 249 249 248 247 248 248 248 248 248 248 248
254 255 255 255 255 256 256 257 257 257 257 257 256 256 257 258 258 258 259 258 257 257 257 257 257 258 258 258 257 256 255 253 253 253 254 254 254 255 255 255 255 255 255 255 253 253 252 252 252 252 253 253 253 254 254 254 253 253 253 252 252 252 252 251 251 250 250 250 249 248 248 248 248 248 246 246 247 247 247 246 247 248 248 247 247 246 246
255 255 255 255 255 256 256 256 256 255 256 255 256 256 257 257 258 258 258 258 257 256 256 256 256 256 256 256 257 257 256 254 251 251 254 254 254 255 255 255 255 254 253 253 252 252 252 252 252 253 253 253 254 254 254 253 253 253 252 252 252 252 251 251 250 250 249 248 248 248 248 248 247 247 247 247 247 247 247 247 247 247 247 247 247 247 246
255 255 255 255 256 256 255 255 255 255 255 256 256 256 257 257 257 257 257 257 257 256 256 255 255 254 254 255 255 254 255 255 254 252 253 254 254 254 254 254 254 253 253 252 252 252 252 252 252 253 253 253 253 253 253 253 252 252 252 252 252 252 252 251 250 250 249 248 248 248 248 247 247 247 246 246 247 246 245 245 246 246 247 247 247 246 246
255 255 255 255 255 254 254 254 254 255 255 256 256 256 257 257 256 256 257 257 257 256 255 255 254 254 254 254 254 254 254 254 254 254 254 254 254 254 254 253 253 253 252 252 251 251 252 252 252 252 253 253 253 253 252 252 253 252 252 251 251 251 249 248 248 248 248 248 248 248 248 247 247 246 246 246 246 246 246 246 246 246 245 245 245 246 247
254 254 254 255 255 255 255 255 255 255 255 256 256 256 257 257 256 257 257 257 257 256 255 255 254 254 254 253 254 254 254 254 254 254 254 254 254 253 253 253 253 252 252 252 251 251 252 252 252 252 252 252 252 252 252 252 251 251 251 250 249 248 248 248 248 247 248 248 247 247 247 247 246 244 245 246 245 245 245 244 245 245 244 245 246 246 246
255 255 255 255 255 255 255 255 256 256 256 256 255 255 255 256 256 256 256 256 256 254 254 253 252 253 254 253 253 254 254 254 254 254 254 253 253 253 253 253 252 252 252 252 252 252 252 251 251 251 251 252 251 251 250 250 250 250 249 249 249 249 248 248 248 247 247 247 247 247 247 247 246 245 245 245 245 245 245 245 245 245 245 245 245 245 245
Wind_Speed
21 20 21 20 22 22 14 14 12 16 17 15 19 26 28 12 14 19 20 24 22 20 19 22 27 27 28 30 30 26 21 16 10 4 8 11 13 12 12 13 13 12 11 12 12 13 13 12 13 13 12 12 12 12 13 14 13 13 13 14 14 14 13 13 13 12 12 11 10 10 10 10 9 8 8 7 6 5 5 4 4 4 4 5 6 7 7
16 16 18 21 27 23 22 17 13 10 13 21 27 29 11 16 24 27 24 24 28 22 21 28 30 30 30 29 27 26 25 19 11 6 9 14 17 16 15 16 16 17 18 18 15 13 11 14 15 14 13 13 14 15 15 14 13 13 13 13 14 13 13 12 12 12 12 10 10 10 10 9 9 9 8 7 6 5 5 5 4 4 5 6 7 7 7
18 20 22 22 22 18 14 13 14 12 16 22 24 16 9 17 23 22 28 29 26 16 24 28 30 31 28 25 29 29 21 19 22 19 17 21 24 21 18 15 15 17 18 18 17 16 13 13 15 14 13 13 12 13 13 14 14 13 14 13 13 13 13 12 12 12 11 10 10 10 10 9 8 8 8 6 6 6 5 5 5 4 5 7 7 7 7
15 15 22 24 15 14 17 17 16 20 26 26 22 20 18 19 20 24 21 17 17 21 29 30 29 27 25 29 31 26 20 23 25 17 16 17 19 21 18 15 14 14 16 17 18 18 18 16 12 11 11 13 14 15 14 14 13 13 13 12 13 12 12 12 12 12 11 10 9 9 9 8 8 8 7 6 6 5 5 5 5 5 6 7 7 6 5
17 16 18 18 16 13 15 17 27 35 32 25 24 26 27 25 21 19 15 15 20 24 22 20 22 26 28 29 25 18 17 23 19 16 16 15 19 19 16 15 14 14 13 15 17 19 17 16 14 12 12 12 14 15 14 14 12 13 12 12 12 12 11 11 12 11 10 10 9 9 9 9 8 7 7 6 6 6 6 5 5 6 7 7 6 6 6
13 16 20 13 10 14 15 24 31 25 26 27 28 26 30 32 25 19 20 20 15 18 19 23 25 29 30 28 15 11 16 19 17 14 15 19 20 19 18 16 15 14 12 10 13 17 18 17 16 9 12 10 9 10 10 10 11 11 12 11 10 11 9 10 11 11 9 9 9 9 9 8 8 7 7 6 6 5 4 5 6 7 7 7 6 6 5
9 12 12 11 18 19 21 17 4 12 21 27 29 30 29 29 28 28 27 27 28 27 27 25 27 29 30 24 16 17 22 19 14 14 18 21 21 20 19 18 16 14 13 11 10 11 12 12 9 10 10 10 11 10 10 11 10 10 8 9 8 10 9 9 9 9 10 9 9 9 9 8 8 7 7 6 6 5 5 5 6 6 6 6 6 5 4
7 6 10 13 18 4 5 5 13 17 19 19 19 23 28 32 32 30 28 28 28 27 29 28 28 28 28 17 11 19 22 20 15 14 16 20 21 20 18 16 15 15 11 8 9 11 8 10 9 10 11 11 10 9 10 11 8 7 7 7 8 8 8 8 8 9 10 10 9 9 9 8 8 7 6 6 6 5 5 5 5 5 5 5 5 5 5
13 9 15 22 3 3 6 5 12 16 15 15 19 21 25 29 28 27 24 25 28 28 28 29 28 28 22 12 15 20 23 20 17 17 18 21 20 19 19 16 15 12 6 5 7 7 10 11 10 11 10 10 11 10 9 8 9 9 9 10 8 8 8 8 9 10 10 10 10 10 9 9 8 7 7 6 5 4 4 5 5 5 5 5 4 4 4
14 12 11 8 10 15 11 16 15 17 21 24 27 22 24 11 14 17 21 25 26 29 29 27 27 23 12 11 15 21 26 20 15 18 17 18 17 18 19 15 10 4 3 3 6 11 12 12 12 10 13 16 17 14 13 11 15 11 10 11 11 10 10 10 10 10 10 10 11 10 9 9 8 7 5 4 4 4 5 5 5 5 5 5 4 4 4
11 13 10 10 13 12 11 20 20 23 20 21 21 20 17 7 8 13 21 23 24 26 24 24 24 13 11 13 15 18 24 17 14 13 12 14 16 15 14 12 11 6 6 7 9 10 12 14 13 16 19 20 19 19 17 12 14 13 11 10 10 10 10 10 9 8 8 9 10 10 10 9 8 8 7 5 4 4 4 4 4 4 5 4 3 3 4
12 15 13 14 7 13 11 15 17 20 23 21 13 21 7 12 19 24 26 28 27 25 24 23 18 12 15 15 16 21 22 14 11 8 10 12 11 10 10 7 5 3 6 8 9 12 16 17 15 18 17 18 21 20 18 18 21 21 17 15 14 12 9 9 7 7 7 8 7 8 9 8 7 7 6 5 5 5 5 4 4 4 4 3 3 3 4
21 23 14 8 8 5 6 17 18 21 21 18 20 24 2 14 20 23 25 27 23 20 21 17 16 16 18 18 18 18 13 13 13 11 8 8 7 9 8 7 5 6 8 10 13 15 8 11 15 16 20 20 18 16 15 17 24 20 18 15 15 12 11 10 9 9 7 7 9 8 7 8 7 6 5 6 6 6 5 4 3 3 3 4 4 4 3
16 16 19 17 14 14 15 13 19 17 12 14 21 16 20 24 23 20 17 18 18 19 20 18 18 18 19 18 13 13 15 17 18 17 11 7 6 3 1 2 7 6 7 7 6 5 6 11 13 16 19 21 19 15 14 14 11 13 13 12 11 11 12 11 11 10 9 8 7 7 7 7 7 6 5 5 5 5 5 4 4 5 5 4 2 2 2
15 11 13 9 13 7 21 25 21 17 17 18 16 20 18 20 18 16 14 14 15 16 18 19 20 19 18 18 16 15 15 14 15 16 15 9 11 11 8 6 7 9 8 10 10 11 11 13 14 17 19 21 18 18 16 11 12 13 11 11 12 12 12 11 11 11 10 11 9 7 7 7 8 7 6 5 5 5 5 4 5 6 5 2 1 1 2
12 15 15 10 7 13 16 18 15 14 24 20 21 18 19 15 13 11 11 12 13 14 16 17 17 16 16 16 16 15 14 13 14 14 13 9 8 8 9 9 10 9 10 10 10 9 10 12 14 19 21 20 21 19 12 11 11 13 12 11 12 12 11 11 11 11 11 11 10 8 9 9 9 8 7 6 6 5 5 5 5 5 3 1 0 0 2
8 5 5 7 11 11 3 11 17 17 16 13 16 18 18 15 12 12 12 14 15 15 15 15 15 16 15 16 15 14 13 12 12 12 11 8 10 10 11 9 7 8 12 11 8 8 7 10 11 19 19 20 23 19 15 15 15 15 14 14 13 12 11 11 10 11 10 9 9 9 9 9 8 8 8 7 6 6 5 5 4 3 2 1 1 1 2
10 12 7 8 9 12 15 16 15 15 14 15 12 10 12 13 14 12 10 13 15 17 15 14 14 16 18 19 17 15 14 14 13 12 8 5 3 0 2 3 5 6 4 6 9 11 8 7 12 18 17 19 25 20 14 12 12 14 17 19 17 12 12 11 12 12 13 11 10 10 10 8 7 7 8 8 6 6 6 5 4 4 2 2 2 1 2
9 7 8 17 16 19 19 19 19 18 7 5 5 7 8 8 12 14 13 13 13 14 13 12 12 14 15 16 17 17 16 16 15 14 12 8 5 6 7 6 7 6 7 8 11 13 14 11 14 18 18 16 17 18 14 12 13 15 15 15 14 12 12 11 12 12 11 10 10 10 8 7 6 6 6 6 6 6 6 5 5 4 4 3 2 1 2
11 11 15 22 24 25 20 15 10 6 8 8 8 8 7 9 10 12 14 13 14 13 14 14 13 15 17 16 16 16 16 15 16 15 14 12 7 3 3 5 9 8 11 14 14 15 14 14 14 18 15 17 17 16 11 14 17 15 17 14 14 12 11 10 9 10 9 12 11 8 7 7 7 6 5 6 6 6 7 6 6 5 4 4 2 1 2
18 24 21 14 19 20 20 8 4 10 7 10 11 11 13 14 15 16 16 12 13 14 16 15 14 15 17 16 15 17 16 15 15 15 14 10 7 6 8 9 13 15 15 15 16 17 17 11 16 18 17 15 17 19 19 19 21 17 13 12 12 13 10 10 9 8 8 9 8 8 8 6 5 6 6 6 6 4 3 4 5 5 4 4 3 1 1
16 12 16 18 17 15 15 12 11 12 13 13 15 17 18 18 17 15 16 17 16 15 15 16 14 15 16 18 17 15 17 17 17 14 13 10 8 9 11 10 13 14 14 17 17 17 14 13 17 17 17 17 16 12 19 23 24 25 21 13 12 11 10 10 9 8 8 8 7 8 8 7 6 3 2 6 5 6 6 9 7 6 6 4 3 2 1
15 13 14 12 15 17 13 16 20 23 21 20 20 18 19 20 20 20 21 22 21 21 21 18 19 18 20 21 19 19 17 18 17 17 14 14 10 10 9 10 13 14 16 16 14 14 14 16 19 19 18 20 22 19 19 19 23 27 19 12 10 9 10 8 9 9 9 8 7 7 7 7 6 6 5 5 9 10 9 8 6 8 9 8 6 4 2
22 19 18 16 17 20 21 23 24 22 19 20 23 21 19 19 17 17 16 16 18 19 20 20 18 19 19 19 17 20 21 22 21 18 17 17 15 14 11 14 16 17 15 14 16 20 18 19 21 19 19 21 22 19 12 12 16 20 14 13 12 11 10 9 11 10 9 9 9 8 7 7 7 8 7 7 7 10 9 8 10 10 10 9 7 6 5
21 19 18 17 19 23 20 19 18 18 16 13 14 16 17 19 19 18 20 19 18 19 17 19 20 18 17 18 17 18 19 22 21 22 20 20 20 17 13 14 15 15 17 18 19 19 20 22 20 19 21 21 20 22 17 13 12 16 14 13 14 11 10 10 10 10 9 9 9 8 9 8 7 7 8 9 9 9 7 6 9 10 10 9 9 7 7
19 18 16 14 15 15 14 16 13 12 16 17 18 16 20 19 20 21 21 20 19 20 21 21 23 23 21 20 19 21 21 20 20 19 17 17 16 13 11 14 16 15 16 17 18 17 20 25 22 22 23 21 23 23 22 22 17 13 16 14 14 13 11 12 11 9 9 9 8 8 7 6 6 5 4 5 6 7 7 6 6 6 7 9 9 8 8
11 12 13 12 12 13 10 10 12 16 19 17 18 18 17 18 20 20 19 20 21 20 20 22 22 22 19 18 19 18 19 21 18 19 17 18 17 16 14 14 15 17 18 16 14 16 22 22 21 21 23 22 20 21 24 23 18 14 17 19 13 18 28 18 9 10 8 8 7 7 6 6 5 5 4 4 5 4 5 7 6 3 0 2 5 7 6
8 9 9 3 10 13 15 18 19 18 17 16 17 18 17 16 18 20 21 21 20 19 19 18 18 19 19 17 16 18 16 18 19 19 18 18 16 15 13 14 16 15 14 14 15 17 19 20 22 25 23 18 15 21 21 19 15 22 22 16 11 11 10 13 8 7 7 7 7 7 7 6 6 6 6 5 5 5 4 4 5 4 2 1 1 4 6
10 11 9 7 9 13 15 15 14 15 17 17 16 14 16 18 20 18 19 19 20 21 20 19 19 19 19 19 16 17 16 16 18 18 18 16 14 13 13 13 9 7 10 12 11 13 17 18 20 23 21 17 19 15 15 16 22 23 21 14 11 9 10 9 8 7 7 7 7 8 8 7 6 5 4 4 3 3 3 4 4 3 2 1 1 2 4
12 12 13 13 13 13 12 12 14 18 17 17 18 16 15 16 16 17 19 19 16 19 20 22 21 19 19 20 19 19 20 21 21 19 17 15 13 11 6 5 7 6 7 9 14 17 21 22 23 25 23 17 17 15 17 20 21 23 17 10 9 10 9 10 10 10 9 7 9 12 8 7 6 6 5 4 4 3 3 4 4 4 2 1 2 1 2
17 14 14 14 11 9 12 15 14 15 15 16 17 19 20 15 15 16 19 19 18 18 20 20 21 23 22 21 20 20 21 20 20 19 19 17 15 9 10 12 13 13 17 20 21 22 25 25 23 21 12 14 16 14 17 19 12 12 10 9 9 17 19 20 13 9 7 9 8 7 7 6 5 5 5 5 5 4 4 4 4 2 2 1 1 2 1
17 18 14 3 4 12 14 10 10 12 14 16 17 18 16 14 17 20 21 19 18 19 22 23 23 21 20 19 21 21 21 21 21 20 19 18 14 10 12 16 19 20 21 22 21 22 24 19 24 20 17 19 21 24 21 16 15 15 10 10 10 10 13 19 11 11 7 6 7 6 5 6 6 5 5 5 5 5 5 5 4 3 2 2 1 1 0
13 17 19 19 20 19 17 13 8 14 17 18 18 17 16 16 15 17 18 18 19 21 21 21 20 20 21 21 21 22 21 20 23 22 21 20 12 9 12 14 17 19 17 15 19 22 26 29 24 15 18 19 19 19 22 21 19 18 13 9 9 10 12 13 13 11 7 7 6 6 6 5 5 5 5 5 4 4 5 5 4 4 3 2 2 1 1
9 8 13 15 11 13 17 23 21 18 18 18 17 17 18 18 16 18 19 19 20 21 20 21 22 22 22 22 22 23 22 21 20 20 19 16 12 12 12 12 6 5 4 7 13 15 20 19 22 17 19 21 22 20 19 21 16 12 10 10 10 11 10 10 12 8 8 6 5 6 6 5 5 5 5 4 4 4 5 4 4 4 4 3 2 1 4
12 15 16 16 15 16 16 17 19 21 20 22 24 20 16 16 17 19 21 20 21 19 19 19 20 22 23 24 22 20 19 21 21 22 20 18 13 8 6 7 7 9 11 14 18 16 19 20 20 19 23 23 21 19 21 19 13 11 10 10 15 10 12 10 10 8 8 10 9 9 7 5 4 4 4 5 4 4 4 4 4 3 4 3 2 1 1
13 14 14 14 14 15 17 17 17 21 21 21 22 22 24 21 20 22 24 24 19 18 18 19 19 20 21 20 19 18 18 16 17 17 18 13 3 9 10 12 13 14 13 12 13 16 20 18 25 25 19 18 18 19 20 15 8 11 14 15 18 16 12 8 8 11 8 8 9 7 6 6 7 5 4 4 4 3 4 3 4 3 3 3 2 1 1
10 14 15 16 16 16 16 16 16 18 20 22 23 23 26 25 23 22 22 21 20 18 17 17 18 20 22 22 20 20 19 17 17 16 11 4 9 10 12 12 14 17 18 13 13 17 18 19 26 26 20 17 18 19 18 21 13 14 18 18 18 13 11 10 8 7 7 6 5 6 7 6 5 5 3 4 4 3 4 4 4 3 3 2 2 1 1
15 14 17 17 17 17 17 16 17 19 22 29 27 23 24 25 24 21 20 18 17 17 19 20 20 21 21 20 19 20 20 17 14 7 5 8 9 12 11 13 12 14 14 12 17 17 13 19 28 20 15 16 17 15 18 22 22 18 12 12 12 12 13 10 7 5 6 6 5 6 6 6 6 5 4 3 3 4 3 3 4 3 3 2 2 1 1
18 15 14 15 15 16 18 17 14 16 19 25 27 25 22 23 26 24 22 20 20 20 20 20 19 18 18 20 18 15 11 7 1 6 7 9 9 11 7 5 4 5 9 14 18 15 17 21 18 15 15 16 17 19 18 21 20 11 9 10 13 10 11 8 9 6 6 5 6 6 6 6 5 5 4 4 3 3 3 3 4 3 3 2 2 1 1
16 16 17 17 17 16 17 18 16 17 17 18 21 25 23 21 21 20 21 21 19 19 20 20 19 17 17 16 12 9 5 3 3 7 10 11 14 14 11 11 12 14 16 21 17 16 22 25 19 15 16 16 9 10 12 19 18 12 8 9 8 8 7 7 8 8 7 6 7 6 5 5 5 4 4 4 4 3 3 3 3 3 2 2 2 1 1
17 17 17 16 18 17 17 18 19 17 16 18 20 20 20 19 20 20 20 21 20 18 18 15 14 14 13 9 5 3 4 5 7 8 11 14 13 10 11 9 7 14 16 14 15 17 20 17 15 13 10 9 7 12 11 16 12 8 9 8 8 8 8 8 7 7 6 7 5 6 5 5 5 5 3 4 3 3 3 3 3 2 3 2 1 1 1
18 17 19 19 17 16 17 17 18 19 18 17 19 19 20 20 19 18 19 19 19 16 12 10 10 9 5 3 4 6 7 9 11 11 10 6 6 13 14 8 10 10 16 17 18 16 15 16 16 12 10 10 10 16 16 14 9 8 9 9 8 7 7 7 6 6 5 5 6 5 4 4 5 4 4 3 4 3 3 3 3 3 2 2 1 1 1
17 20 19 18 17 18 18 19 19 20 21 19 18 18 18 17 15 16 16 16 14 11 10 9 8 8 6 4 5 6 7 9 11 13 14 13 16 9 12 16 11 11 20 16 15 13 13 11 8 7 11 11 13 18 16 8 7 8 8 10 10 7 6 7 7 6 6 6 5 5 5 4 4 5 4 4 4 3 3 2 2 2 2 2 2 1 0
19 18 16 17 17 17 18 18 18 18 18 17 16 17 17 14 14 15 15 14 12 9 8 8 8 8 7 7 7 6 6 5 6 6 11 9 11 12 10 9 9 14 19 14 12 13 14 11 8 12 15 17 22 18 9 7 7 7 7 7 7 6 8 7 6 5 5 4 5 5 4 3 4 3 4 4 4 3 3 2 2 2 2 2 1 1 0
18 17 17 17 18 18 17 16 17 17 17 17 16 14 13 13 13 13 12 12 11 9 8 7 8 8 7 8 7 7 7 7 6 6 10 9 10 6 6 10 11 11 12 14 12 12 9 9 14 19 17 20 19 17 9 8 7 7 7 7 7 7 6 6 5 5 5 5 5 4 3 3 2 3 3 3 4 3 3 2 2 2 2 1 1 1 0
18 16 15 17 18 16 16 17 17 16 16 16 14 12 10 12 13 12 11 11 11 10 10 9 9 9 8 8 8 9 11 9 9 9 8 6 7 8 9 11 9 10 14 14 11 8 10 16 20 20 19 19 17 10 7 7 7 7 7 7 6 7 6 5 5 5 5 5 4 4 3 3 2 2 2 2 2 2 2 3 2 1 1 1 1 1 1
16 15 14 15 17 17 18 16 15 16 15 13 11 10 10 11 12 10 10 11 10 9 9 9 9 9 9 8 6 5 7 8 10 10 9 10 12 11 11 14 16 16 13 9 9 9 12 14 16 16 17 17 14 7 7 7 7 6 6 6 6 5 5 5 5 5 5 4 3 4 4 3 3 3 3 3 2 2 2 2 2 2 1 1 1 2 2
16 17 17 20 22 20 16 14 13 12 11 10 11 11 10 11 11 10 10 9 10 9 9 8 8 9 10 10 9 9 6 5 11 9 7 9 9 10 9 8 11 16 18 14 15 14 19 19 16 16 17 14 10 7 7 6 6 6 6 6 5 6 6 6 5 5 4 4 4 3 3 2 2 2 2 1 1 2 1 2 2 1 1 1 2 2 2
18 19 17 17 14 13 13 11 10 10 9 10 11 9 10 10 8 8 8 10 11 9 8 9 10 10 9 9 9 7 8 8 6 10 5 7 9 11 12 15 19 18 12 11 10 9 13 15 14 15 15 11 7 7 7 7 6 5 5 5 5 5 5 5 4 4 4 4 3 3 2 3 2 2 2 1 1 1 1 1 1 1 1 1 1 2 1
13 11 10 9 9 9 9 9 9 8 9 9 9 8 9 8 7 7 7 8 7 7 7 8 8 8 8 8 8 9 9 11 13 13 11 11 12 11 11 11 10 13 13 10 11 11 11 13 12 12 10 7 6 6 6 6 6 5 5 5 6 5 5 5 5 5 4 3 3 2 2 2 2 2 1 1 1 1 1 1 1 2 2 2 3 2 1
10 9 9 9 8 9 11 9 9 9 8 9 9 8 8 7 7 7 7 9 7 7 7 7 8 9 8 8 9 9 10 11 12 12 10 10 10 12 12 10 11 11 11 11 10 10 7 6 6 6 8 7 6 6 6 6 6 6 6 6 6 6 5 4 3 3 2 2 2 2 2 2 2 2 1 1 1 1 1 1 2 2 2 2 2 1 1
10 9 8 8 8 9 8 7 8 8 8 8 8 8 7 7 7 7 8 11 8 8 8 7 8 9 8 8 9 9 9 11 11 11 11 11 10 10 11 12 10 10 9 10 10 8 7 7 7 8 8 7 6 6 7 8 6 6 6 5 5 5 4 3 3 3 3 3 3 2 2 1 2 2 1 1 1 1 1 2 2 1 1 1 1 1 1
Wind_Direction
245 249 258 259 257 252 235 198 195 203 204 208 213 225 232 219 236 254 251 254 260 261 257 263 267 276 278 276 277 283 286 285 275 176 209 221 230 234 228 225 214 201 202 203 200 197 198 188 187 191 188 186 185 185 182 178 173 169 158 160 162 160 161 161 160 154 149 151 147 145 148 151 152 157 157 158 161 167 177 190 206 216 229 235 244 249 249
259 260 257 258 263 267 266 253 243 239 226 227 230 240 219 217 243 247 254 258 259 260 259 264 269 271 272 274 280 282 281 280 268 211 249 268 271 263 249 239 230 221 220 216 203 197 185 185 190 186 186 186 186 183 181 176 170 163 154 163 160 159 161 158 150 149 145 141 144 142 147 152 154 156 157 157 161 170 181 196 206 219 225 237 242 245 249
253 250 252 256 255 260 270 273 274 283 281 264 250 254 235 235 241 244 242 247 257 261 260 260 261 263 268 278 273 272 282 284 277 277 284 284 281 277 266 253 243 235 229 226 220 208 186 186 191 186 184 182 179 179 178 174 167 161 157 160 158 157 157 151 144 141 139 142 143 148 151 151 151 153 154 155 160 171 182 197 209 218 229 234 234 237 241
248 238 243 242 247 257 267 276 281 268 254 255 263 258 243 235 242 248 253 254 252 253 257 257 259 266 268 266 267 273 276 277 277 288 279 271 271 270 270 267 259 248 235 229 226 221 212 199 180 177 175 177 175 181 175 170 162 154 155 155 153 153 148 140 140 140 141 141 143 147 146 149 149 148 149 151 159 171 184 198 209 214 227 230 234 237 240
239 238 242 246 255 272 270 258 246 243 247 250 255 256 256 252 251 254 246 234 229 240 250 266 269 264 263 262 261 269 268 266 273 278 271 263 263 269 274 268 265 260 246 230 227 226 220 207 193 184 169 164 179 177 170 165 143 151 153 148 145 143 138 138 141 141 140 141 142 144 148 148 145 145 150 156 165 178 193 198 204 218 223 228 231 234 241
242 238 247 249 249 233 226 232 233 234 244 245 243 246 248 249 242 241 243 256 262 259 254 252 256 262 261 261 261 250 260 270 278 270 267 267 272 276 275 272 269 267 259 242 225 223 218 207 192 151 166 162 159 154 146 135 139 144 137 142 138 142 137 141 141 139 137 137 141 142 142 141 145 150 156 166 172 181 185 196 214 223 224 227 232 235 241
233 236 248 244 226 232 232 247 240 231 234 239 240 244 248 254 255 253 254 254 254 255 256 255 255 257 260 267 276 274 266 264 262 266 269 273 275 276 277 277 272 265 263 257 229 218 214 191 146 137 152 147 144 140 138 136 139 136 137 136 136 140 138 137 133 135 137 139 139 141 142 144 148 153 158 164 173 184 189 203 214 219 221 223 228 228 243
253 227 206 236 239 231 284 211 221 224 235 240 253 258 249 247 247 248 248 249 250 253 256 256 256 259 261 270 274 268 268 267 263 256 259 263 268 272 271 271 273 273 269 243 208 208 175 140 145 149 156 145 134 135 125 133 132 131 127 129 132 131 132 133 137 141 140 142 138 140 143 145 148 154 162 169 176 184 195 210 215 222 229 229 230 231 236
236 208 214 232 260 320 136 184 219 214 215 217 219 240 240 231 234 236 246 249 253 253 251 253 258 262 267 281 272 266 263 257 253 252 255 260 263 264 266 265 264 269 267 208 193 154 147 149 144 155 146 132 122 125 133 131 128 135 140 140 145 140 138 140 146 148 147 140 140 142 145 145 151 158 161 170 175 182 198 214 217 222 226 232 232 233 240
211 230 235 234 224 237 190 208 223 220 218 221 231 236 253 209 233 236 244 245 245 249 251 254 256 258 276 262 262 262 263 256 251 253 251 254 255 257 261 263 262 223 163 133 144 157 151 154 156 146 134 137 134 139 147 145 145 151 152 160 154 151 150 147 144 143 145 142 141 143 147 150 151 152 151 159 171 191 199 216 221 220 230 239 237 237 245
211 227 232 221 227 229 177 221 218 230 232 231 243 253 252 141 196 218 239 242 241 245 248 251 255 262 249 245 250 259 263 265 253 248 250 248 247 249 249 251 253 207 182 165 158 151 154 164 164 148 153 155 157 156 147 154 153 154 165 156 153 148 140 134 134 133 132 137 140 144 144 147 147 148 153 160 166 180 215 227 232 232 234 241 239 253 254
227 243 237 239 206 248 199 216 223 230 237 240 242 251 242 149 205 222 232 239 244 246 247 252 255 249 253 245 249 249 255 261 270 267 251 247 248 247 245 238 230 168 134 128 147 164 183 184 156 161 152 154 163 156 155 143 157 167 161 139 114 102 109 111 108 110 121 126 126 129 135 130 134 137 142 152 165 185 209 218 227 235 228 240 249 263 260
227 225 245 254 245 222 165 216 216 223 230 232 236 240 214 215 214 221 228 237 241 249 258 259 262 244 245 249 251 264 280 279 273 254 233 244 244 247 237 223 148 159 170 176 187 192 161 138 151 156 161 158 165 159 150 156 180 149 128 127 128 127 124 122 124 123 123 128 128 126 129 130 133 141 154 162 169 186 201 220 221 238 238 248 245 252 263
222 225 234 235 242 219 217 224 223 224 230 230 235 237 233 242 239 239 235 245 248 253 256 260 258 262 259 260 259 259 259 260 261 268 260 215 231 239 358 135 164 170 164 168 162 135 130 149 147 160 162 171 170 153 160 179 151 123 129 127 120 121 126 126 126 125 127 123 119 123 127 134 137 146 159 159 170 180 201 199 206 232 234 228 240 269 285
230 230 240 246 240 119 193 228 230 213 230 236 239 249 242 245 251 251 252 251 255 252 259 256 260 263 262 261 259 252 249 252 259 262 263 234 224 218 198 197 189 172 176 183 184 176 151 156 156 164 168 173 169 154 170 149 130 138 130 127 128 128 127 130 132 133 133 135 136 135 139 144 146 154 155 157 181 192 201 195 208 226 219 214 236 297 302
214 214 212 229 239 237 206 208 231 201 223 235 238 243 255 252 255 253 257 257 261 264 265 270 270 265 264 261 259 261 256 252 252 256 260 247 226 220 210 202 187 182 190 184 183 158 139 155 164 163 169 172 165 169 158 134 132 119 127 127 130 128 132 135 136 138 138 138 136 140 147 152 155 159 164 165 181 190 191 198 201 208 198 190 257 319 324
263 292 327 334 351 350 323 246 256 270 275 282 287 287 288 288 288 303 304 313 313 313 314 307 303 294 286 280 278 277 274 271 266 266 270 249 224 217 202 192 176 184 193 185 167 154 165 160 156 171 173 170 171 168 139 140 145 143 139 135 134 134 134 136 131 132 134 134 140 144 150 155 156 162 165 168 180 187 187 202 197 202 188 150 103 15 327
315 306 270 355 359 350 340 330 333 324 337 340 356 355 349 343 346 354 339 337 329 333 341 344 334 325 326 325 323 317 312 308 309 308 311 300 284 17 155 180 176 189 166 160 167 167 162 174 159 177 180 171 175 160 136 139 143 137 136 133 133 133 132 134 137 140 140 143 147 151 156 161 165 162 160 174 179 173 184 187 191 190 173 136 96 21 334
317 279 354 346 334 325 314 308 305 307 319 306 326 344 342 325 330 330 329 326 323 321 330 330 325 319 321 319 317 316 316 317 314 313 306 293 256 216 218 188 144 165 166 173 184 182 180 172 175 183 183 183 165 127 149 141 142 139 135 135 131 134 137 134 142 144 139 145 150 156 159 159 166 160 162 177 173 172 181 180 185 179 158 121 95 34 331
291 292 304 303 303 294 291 285 295 331 329 321 330 325 316 315 312 309 312 318 314 322 314 316 315 311 307 305 305 303 303 303 300 296 294 290 276 222 176 163 174 176 186 192 191 184 189 174 165 182 181 174 156 133 136 145 140 141 140 142 139 138 131 132 143 147 141 139 138 143 159 162 160 160 170 177 173 180 179 180 178 166 141 122 109 77 323
295 297 287 291 291 292 292 301 17 309 316 317 306 307 310 310 307 306 305 303 300 305 299 298 295 296 293 288 287 286 287 282 279 281 281 272 245 205 191 190 183 195 198 197 195 192 187 138 164 178 176 167 150 147 144 143 151 147 142 126 120 127 132 133 138 143 134 144 147 144 150 156 161 163 168 174 175 159 164 172 176 154 132 122 118 126 2
281 269 300 322 306 304 303 304 318 315 312 305 306 313 312 310 307 306 303 301 300 293 285 285 286 281 279 279 279 276 277 279 279 279 277 267 237 221 213 198 199 206 202 198 196 194 179 158 169 178 176 159 151 149 146 152 154 144 133 134 128 135 139 139 140 134 134 141 138 140 146 152 144 126 179 187 171 168 178 190 175 140 126 125 121 122 125
271 284 280 278 292 299 298 311 315 311 308 306 305 306 303 303 300 298 295 294 290 287 283 279 278 277 276 277 278 277 275 273 271 271 273 271 254 231 209 199 209 208 207 202 193 184 180 172 178 180 173 156 155 155 159 162 162 147 136 135 133 135 139 136 143 136 138 134 143 143 146 144 146 145 154 190 198 182 174 166 150 129 107 99 82 84 89
287 296 302 309 300 293 298 298 297 298 304 306 304 305 303 300 300 301 297 293 293 293 291 290 286 283 281 280 281 279 278 276 275 272 269 265 258 244 217 206 211 208 206 192 189 194 183 176 181 178 172 169 167 150 155 165 167 149 144 136 141 144 138 135 141 142 141 143 143 143 144 149 151 153 158 159 180 185 167 160 146 124 102 87 79 80 65
273 286 287 286 284 285 288 292 297 298 306 326 327 320 318 318 315 315 309 306 299 295 292 292 292 291 290 288 284 281 279 279 277 275 272 269 267 257 233 214 213 207 203 199 201 196 183 179 176 175 170 172 168 162 154 156 163 151 146 127 129 135 136 139 143 143 143 144 148 145 147 149 155 164 163 166 162 164 158 151 143 114 85 76 72 75 62
272 280 295 302 296 294 303 308 312 338 337 327 315 311 308 305 305 306 304 304 302 303 302 301 299 295 293 290 288 286 283 278 278 276 274 269 267 259 234 218 215 210 208 205 205 194 182 178 175 172 172 172 169 168 164 151 163 155 152 147 136 140 137 143 143 148 147 146 144 141 141 139 145 152 163 167 162 155 153 150 145 118 80 66 59 56 49
323 23 16 335 313 314 327 329 308 313 306 303 296 299 308 314 313 307 304 301 298 296 292 290 287 286 284 280 278 273 273 277 275 273 270 269 264 255 234 225 217 211 207 204 196 185 180 178 176 174 175 171 162 165 167 158 155 159 147 132 109 150 153 150 135 144 143 140 130 125 125 128 130 139 138 145 146 153 158 150 148 137 91 11 22 40 43
25 12 35 329 292 301 306 308 302 296 294 302 312 313 313 309 306 307 305 304 301 299 297 294 293 291 288 285 281 280 274 273 272 271 268 264 261 254 240 227 220 211 202 192 191 181 176 177 178 181 169 141 131 131 146 143 152 145 136 130 132 130 137 144 125 126 124 123 128 129 136 132 134 136 143 149 147 143 139 128 129 132 151 112 311 325 35
355 339 334 313 291 291 287 285 294 306 310 307 307 307 311 312 308 304 299 295 295 297 294 293 290 288 288 288 286 283 280 277 275 273 270 268 261 249 243 235 221 199 186 192 180 170 174 177 179 178 169 148 134 149 155 157 155 150 146 136 133 130 137 138 132 123 119 118 126 127 123 118 126 130 127 126 120 126 120 116 108 102 98 62 346 13 48
334 327 317 313 309 298 306 321 316 309 305 309 315 312 309 311 306 297 294 295 299 299 296 296 295 293 292 291 289 286 283 280 277 278 277 274 265 250 215 129 120 142 161 166 178 176 180 182 178 179 171 159 154 148 156 152 136 129 126 130 122 133 123 128 124 124 121 123 131 124 118 125 131 129 130 128 125 122 115 109 111 110 112 110 72 73 31
314 308 300 292 289 313 318 303 303 300 301 307 310 304 300 299 290 289 292 299 302 297 297 297 296 295 292 288 289 288 286 284 281 278 276 271 264 228 170 161 164 182 189 195 188 184 184 183 178 159 132 140 149 139 137 127 122 113 107 109 102 131 130 132 131 129 123 125 124 126 127 127 129 133 132 131 129 124 115 110 110 110 125 113 89 77 40
314 311 305 292 341 317 305 302 298 298 301 307 303 295 297 305 302 298 298 298 295 295 296 297 295 294 294 298 298 295 292 289 284 280 276 274 260 208 188 189 201 203 203 198 189 185 176 162 151 149 150 152 148 143 152 141 143 142 135 132 125 127 133 134 130 128 111 109 115 113 122 125 133 136 128 134 139 136 131 128 132 139 142 118 110 83 16
330 330 333 338 339 331 321 307 304 304 306 304 295 292 294 295 295 292 291 294 296 293 291 288 288 290 294 293 290 288 288 290 290 288 280 275 264 218 206 208 212 213 213 201 190 176 163 166 143 129 142 150 151 155 156 153 150 147 144 133 127 130 139 137 130 128 111 114 123 125 132 129 133 135 136 134 129 132 130 131 134 137 128 124 123 98 228
311 280 281 297 295 298 307 307 310 309 304 297 289 291 295 295 292 290 289 290 286 285 289 292 294 295 293 287 284 283 282 283 282 278 276 273 250 225 219 218 236 219 206 144 133 130 122 137 119 136 142 145 152 155 154 151 145 133 125 122 125 129 126 132 134 121 125 116 112 105 111 122 128 126 127 130 134 132 134 136 136 134 130 130 136 160 263
292 290 285 282 285 281 281 285 292 296 299 299 301 299 290 286 291 290 291 290 287 288 289 287 284 286 285 285 281 276 273 271 272 273 275 272 256 206 150 117 105 91 111 135 149 158 154 144 140 136 145 152 155 154 151 136 134 133 130 130 139 110 114 117 134 134 130 133 134 136 132 127 113 108 114 126 133 130 130 128 132 133 131 135 145 148 278
296 292 288 283 280 280 276 276 278 282 285 285 286 290 293 293 292 290 291 289 285 282 280 280 278 278 280 279 280 281 280 279 283 284 282 275 179 140 141 146 140 135 130 133 147 142 142 145 147 146 146 148 151 148 140 136 105 124 134 125 106 105 105 110 107 94 104 128 135 137 124 110 107 114 120 122 123 124 128 126 135 131 133 137 143 152 200
291 289 290 291 289 287 286 283 284 287 286 286 286 288 289 288 285 282 282 283 288 286 280 279 284 288 288 286 284 282 281 280 280 278 278 157 147 148 150 150 146 147 142 140 153 144 146 147 150 146 145 149 150 150 148 143 130 114 118 111 104 121 128 124 123 116 121 105 98 103 111 112 109 115 129 134 136 134 133 134 135 133 134 139 141 164 166
300 296 293 292 293 291 288 285 285 284 285 284 281 279 283 288 288 286 280 275 277 286 293 293 287 282 280 282 283 281 281 284 282 262 150 153 150 143 137 141 156 156 158 155 141 140 134 140 146 145 146 148 146 116 141 143 139 134 112 122 119 117 111 113 117 112 117 114 112 116 124 124 124 135 136 131 127 137 133 127 132 139 139 143 148 157 156
302 300 290 289 289 289 289 289 285 280 283 284 287 287 285 285 287 290 289 291 294 294 288 286 287 285 283 282 279 285 299 311 18 130 131 121 119 127 105 74 64 106 126 119 127 127 137 146 149 145 142 143 123 122 130 133 135 119 104 108 114 110 113 111 119 112 110 113 125 128 120 124 124 132 135 139 134 125 122 123 131 132 138 139 150 149 156
299 300 297 298 296 297 296 293 294 292 290 286 287 289 292 291 289 289 292 295 293 293 288 288 287 285 286 287 291 297 334 18 102 120 119 116 114 101 75 59 77 96 114 125 129 139 147 149 146 142 143 141 117 120 129 135 133 116 114 115 114 111 116 115 120 118 124 124 119 112 110 118 122 127 128 134 137 135 130 128 137 140 138 137 143 145 153
300 300 302 300 299 301 300 301 300 298 293 287 282 281 286 288 289 292 295 297 295 292 290 293 294 289 292 302 326 13 34 66 79 97 112 118 117 113 105 94 108 123 132 134 140 142 146 145 139 133 122 113 102 124 123 130 122 107 117 113 113 119 128 132 124 122 125 130 128 134 131 125 119 126 127 134 134 130 129 135 138 144 140 138 133 136 139
301 303 301 303 301 302 301 302 300 300 296 292 290 291 290 290 293 296 296 294 294 300 306 308 316 317 323 6 50 62 70 78 79 66 54 60 118 135 112 111 135 128 130 126 128 132 135 135 136 126 115 116 112 129 131 131 122 115 120 123 118 120 114 113 114 120 114 121 125 120 119 126 129 130 133 129 130 133 141 142 142 141 134 128 123 125 122
306 307 305 303 303 304 304 304 303 300 300 300 299 298 298 299 301 298 296 299 304 314 321 325 337 345 360 24 57 58 50 51 62 72 61 45 40 44 94 126 136 129 130 129 130 134 133 131 111 102 115 112 127 127 122 104 101 105 100 103 103 113 118 121 116 114 120 122 115 116 126 129 131 139 145 137 134 131 137 145 142 130 128 127 125 133 152
305 302 299 302 305 306 305 303 302 302 302 305 310 309 309 312 311 309 312 313 317 325 333 341 351 358 10 10 19 45 58 59 74 76 92 76 62 46 47 101 109 123 127 128 128 132 133 120 110 105 102 114 127 125 107 98 101 103 105 111 112 107 113 108 108 116 120 112 119 128 130 132 135 136 131 129 132 127 134 129 119 120 117 125 123 136 130
302 300 302 305 304 305 304 303 303 305 302 301 306 311 315 320 319 320 324 328 333 344 352 5 15 19 21 29 33 47 58 55 48 87 105 102 100 85 78 90 106 120 127 128 128 127 111 106 115 118 120 124 123 119 106 106 106 103 108 109 107 107 106 112 119 118 109 107 109 116 125 132 125 117 112 108 117 126 140 138 129 126 127 131 136 143 152
300 301 303 306 303 300 296 296 296 297 298 302 306 308 319 327 327 325 334 341 345 352 2 15 32 39 41 52 58 61 59 48 39 31 34 47 102 121 125 113 110 118 121 118 116 90 99 106 115 119 120 122 120 110 92 90 93 100 97 98 95 102 110 113 109 107 100 103 110 120 127 119 108 112 112 118 124 112 104 97 109 124 137 125 118 152 205
300 302 303 300 298 294 295 298 303 302 303 309 317 319 326 329 326 328 348 358 7 7 11 14 19 26 33 35 45 76 82 71 47 34 51 75 81 86 95 98 107 114 115 106 103 104 117 114 117 113 116 115 110 92 94 96 96 95 95 93 100 100 105 104 97 94 102 100 102 92 91 87 88 87 85 97 111 115 128 140 143 137 133 133 163 204 217
300 302 303 302 296 296 302 308 309 310 316 321 322 318 323 327 328 339 351 3 4 12 14 14 17 22 22 28 29 33 29 76 92 60 56 84 85 88 88 98 102 101 97 83 74 85 103 110 108 110 110 108 102 80 82 82 88 89 90 95 99 102 104 105 107 107 106 106 111 121 125 123 116 115 123 123 114 116 124 142 144 129 128 161 204 210 210
302 302 303 299 298 309 315 317 318 320 323 322 324 325 328 331 340 355 356 357 4 8 11 15 18 17 17 20 29 37 40 25 72 115 97 85 92 95 97 100 101 100 94 93 93 91 94 96 90 95 96 93 81 80 83 83 82 88 93 95 91 92 97 99 102 116 116 124 127 117 115 116 122 124 131 118 117 126 137 143 130 143 166 185 214 229 227
307 307 309 303 317 327 325 323 326 325 324 327 331 333 335 339 354 356 355 354 1 10 18 18 20 19 25 27 35 45 54 70 78 85 82 78 80 82 91 89 81 79 84 91 92 98 87 76 77 84 83 73 64 74 71 84 90 89 85 90 88 84 74 78 87 89 95 90 100 97 106 100 109 111 103 111 126 135 150 142 150 172 189 237 241 244 234
316 316 307 318 333 323 317 321 328 327 330 337 339 340 343 352 357 360 2 356 354 9 19 28 32 29 32 44 51 53 60 67 73 75 79 76 74 78 81 84 81 83 89 85 92 101 94 80 77 80 84 78 74 75 80 85 89 92 89 87 86 96 105 104 115 112 110 104 93 98 95 93 104 120 152 151 154 167 163 164 176 196 194 219 218 225 227
313 308 315 340 329 321 321 330 336 341 343 350 350 350 353 357 6 4 8 10 13 18 15 27 33 30 39 52 58 60 64 73 75 76 75 78 80 82 76 74 77 72 72 89 93 80 81 74 71 76 76 75 72 79 82 81 76 74 77 79 94 93 89 99 103 106 106 113 104 107 122 114 118 144 172 155 175 187 179 189 195 212 217 226 217 230 256